星链-32276 (STARLINK-32276)

导读 | 豆包AI

STARLINK-32276是美国太空探索技术公司星链星座的成员,于2024年8月31日发射升空。它属于星链网络扩容项目,旨在为全球提供高速低延迟卫星互联网服务,覆盖偏远地区与海洋空域,填补地面网络覆盖盲区,支撑移动通信、航空航海联网等多元场景,进一步完善星链星座的全球服务能力。

基本信息
目录编号:
60944
目录名称:
STARLINK-32276
国际标识:
2024-155W
轨道中心:
EARTH
卫星名称:
星链-32276
卫星全名:
星链-32276 (STARLINK-32276)
卫星状态:
在轨 (已飞行608 天)
发射日期:
2024-08-31 UTC
国别 :
美国 (US)
星等 :
--
轨道信息
数据来源 国际轨道数据 AOE轨道数据
星历时间 2026-05-01T02:46:17+0800
9小时前
查看轨道信息
2026-04-25T08:00:00+0800
6天前
查看轨道信息
半长轴 6853.374km 6853.382km
偏心率 0.0000799 0.0000416
轨道倾角 53.159° 53.156°
近地点辐角 80.531° 24.542°
升交点赤经 247.899° 274.759°
平近点角 279.578° 145.721°
近地点 474.689km 474.959km
远地点 475.785km 475.531km
周期 94.106分钟 94.106分钟
每日圈数 15.301928 15.3019
详细信息
固有亮度:
5
最大亮度:
2.5
卫星平台:
Starlink V1.0
覆盖范围:
全球
运营商:
太空探索技术公司
运营商所在国:
美国
制造商(研发单位):
太空探索技术公司
制造商所在国:
美国
使用方式:
暂无
卫星简介
Starlink 计划是 SpaceX 推出的全球卫星互联网项目,通过发射低轨道卫星,为全球尤其是偏远地区提供高速、低延迟的互联网服务。自 2019 年起,Starlink 已部署数千颗卫星,旨在缩小全球数字鸿沟,推动互联网普及。该项目还为军事、航空等行业提供通信支持,带来广泛经济效益。
2D轨道图
3D轨道图
轨道高度分析图
轨道倾角分析图
轨道综合分析图
查看轨道综合分析图